| time (UTC) | temp F | wind direction | speed MPH | gust MPH | rain 1hr in | rain 24hr in | rain mn in | humidity % | barometer mb |
| 20260507084644 | 54 | 291 | 10.0 | 25.0 | 0.00 | 0.00 | 0.00 | 65 | 1014.3 |
| 20260507083056 | 54 | 277 | 6.0 | 14.0 | 0.00 | 0.00 | 0.00 | 65 | 1014.5 |
| 20260507081548 | 55 | 323 | 7.0 | 17.0 | 0.00 | 0.00 | 0.00 | 64 | 1014.6 |
| 20260507080043 | 55 | 355 | 7.0 | 14.0 | 0.00 | 0.00 | 0.00 | 64 | 1014.3 |
| 20260507074550 | 55 | 263 | 4.0 | 10.0 | 0.00 | 0.00 | 0.00 | 64 | 1014.0 |
| 20260507073039 | 55 | 329 | 5.0 | 16.0 | 0.00 | 0.00 | 0.00 | 65 | 1013.9 |
| 20260507071557 | 55 | 281 | 7.0 | 14.0 | 0.00 | 0.00 | 0.00 | 65 | 1013.8 |
| 20260507070049 | 55 | 272 | 7.0 | 13.0 | 0.00 | 0.00 | 0.00 | 65 | 1013.9 |
| 20260507064559 | 55 | 288 | 6.0 | 18.0 | 0.00 | 0.00 | 0.00 | 65 | 1013.8 |
| 20260507063050 | 55 | 327 | 10.0 | 18.0 | 0.00 | 0.00 | 0.00 | 65 | 1013.9 |
| 20260507061556 | 56 | 315 | 6.0 | 18.0 | 0.00 | 0.00 | 0.00 | 64 | 1014.1 |
| 20260507060045 | 56 | 345 | 9.0 | 18.0 | 0.00 | 0.00 | 0.00 | 65 | 1014.0 |
| 20260507054557 | 56 | 321 | 10.0 | 21.0 | 0.00 | 0.00 | 0.00 | 65 | 1014.0 |
| 20260507053049 | 56 | 328 | 8.0 | 19.0 | 0.00 | 0.00 | 0.00 | 64 | 1014.0 |
| 20260507051543 | 56 | 348 | 8.0 | 15.0 | 0.00 | 0.00 | 0.00 | 65 | 1014.4 |
| 20260507050052 | 56 | 343 | 6.0 | 17.0 | 0.00 | 0.00 | 0.00 | 64 | 1014.6 |
| 20260507044541 | 57 | 319 | 7.0 | 18.0 | 0.00 | 0.00 | 0.00 | 64 | 1014.6 |
| 20260507043052 | 57 | 319 | 6.0 | 16.0 | 0.00 | 0.00 | 0.00 | 63 | 1014.6 |
| 20260507041541 | 57 | 327 | 7.0 | 12.0 | 0.00 | 0.00 | 0.00 | 63 | 1014.4 |
| 20260507040057 | 58 | 309 | 3.0 | 15.0 | 0.00 | 0.00 | 0.00 | 62 | 1014.1 |
| 20260507034548 | 58 | 284 | 8.0 | 18.0 | 0.00 | 0.00 | 0.00 | 61 | 1013.6 |
| 20260507033059 | 58 | 283 | 7.0 | 18.0 | 0.00 | 0.00 | 0.00 | 61 | 1013.3 |
| 20260507031545 | 59 | 312 | 10.0 | 21.0 | 0.00 | 0.00 | 0.00 | 59 | 1013.2 |
| 20260507030043 | 61 | 265 | 10.0 | 22.0 | 0.00 | 0.00 | 0.00 | 57 | 1013.2 |
| 20260507024603 | 62 | 284 | 8.0 | 20.0 | 0.00 | 0.00 | 0.00 | 55 | 1013.4 |
| 20260507023048 | 63 | 313 | 5.0 | 16.0 | 0.00 | 0.00 | 0.00 | 54 | 1013.5 |
| 20260507021552 | 64 | 336 | 6.0 | 13.0 | 0.00 | 0.00 | 0.00 | 52 | 1013.6 |
| 20260507020057 | 65 | 360 | 2.0 | 13.0 | 0.00 | 0.00 | 0.00 | 50 | 1013.3 |
| 20260507014553 | 65 | 261 | 10.0 | 25.0 | 0.00 | 0.00 | 0.00 | 48 | 1013.0 |
| 20260507013056 | 65 | 300 | 10.0 | 21.0 | 0.00 | 0.00 | 0.00 | 46 | 1013.0 |
| 20260507011541 | 66 | 305 | 9.0 | 28.0 | 0.00 | 0.00 | 0.00 | 45 | 1012.7 |
| 20260507010056 | 67 | 316 | 10.0 | 17.0 | 0.00 | 0.00 | 0.00 | 44 | 1012.6 |
| 20260507004554 | 67 | 289 | 7.0 | 16.0 | 0.00 | 0.00 | 0.00 | 44 | 1012.5 |
| 20260507003056 | 68 | 302 | 7.0 | 24.0 | 0.00 | 0.00 | 0.00 | 44 | 1012.5 |
| 20260507001551 | 68 | 248 | 8.0 | 18.0 | 0.00 | 0.00 | 0.00 | 43 | 1012.3 |
| 20260507000156 | 68 | 347 | 9.0 | 24.0 | 0.00 | 0.00 | 0.00 | 43 | 1012.2 |
| 20260506234548 | 69 | 338 | 10.0 | 19.0 | 0.00 | 0.00 | 0.00 | 42 | 1012.0 |
| 20260506233109 | 69 | 286 | 7.0 | 17.0 | 0.00 | 0.00 | 0.00 | 41 | 1012.1 |
| 20260506231556 | 70 | 270 | 6.0 | 15.0 | 0.00 | 0.00 | 0.00 | 41 | 1012.1 |
| 20260506230057 | 70 | 319 | 8.0 | 19.0 | 0.00 | 0.00 | 0.00 | 41 | 1012.1 |
| 20260506224543 | 71 | 298 | 7.0 | 15.0 | 0.00 | 0.00 | 0.00 | 40 | 1012.2 |
| 20260506223044 | 71 | 304 | 8.0 | 16.0 | 0.00 | 0.00 | 0.00 | 41 | 1012.1 |
| 20260506221550 | 72 | 288 | 9.0 | 16.0 | 0.00 | 0.00 | 0.00 | 40 | 1012.1 |
| 20260506220058 | 72 | 288 | 9.0 | 21.0 | 0.00 | 0.00 | 0.00 | 39 | 1012.1 |
| 20260506214553 | 73 | 296 | 13.0 | 26.0 | 0.00 | 0.00 | 0.00 | 39 | 1012.0 |
| 20260506213056 | 74 | 262 | 14.0 | 24.0 | 0.00 | 0.00 | 0.00 | 39 | 1012.0 |
| 20260506211552 | 74 | 275 | 11.0 | 24.0 | 0.00 | 0.00 | 0.00 | 39 | 1011.9 |
| 20260506210043 | 74 | 291 | 11.0 | 21.0 | 0.00 | 0.00 | 0.00 | 38 | 1011.9 |
| 20260506204554 | 74 | 299 | 13.0 | 28.0 | 0.00 | 0.00 | 0.00 | 39 | 1011.9 |
| 20260506203049 | 76 | 321 | 12.0 | 25.0 | 0.00 | 0.00 | 0.00 | 39 | 1011.4 |
| 20260506201541 | 76 | 293 | 10.0 | 30.0 | 0.00 | 0.00 | 0.00 | 39 | 1011.3 |
| 20260506200049 | 75 | 266 | 10.0 | 21.0 | 0.00 | 0.00 | 0.00 | 38 | 1011.3 |
| 20260506194537 | 76 | 274 | 13.0 | 28.0 | 0.00 | 0.00 | 0.00 | 38 | 1011.2 |
| 20260506193049 | 76 | 230 | 14.0 | 30.0 | 0.00 | 0.00 | 0.00 | 38 | 1011.4 |
| 20260506191541 | 76 | 266 | 13.0 | 32.0 | 0.00 | 0.00 | 0.00 | 33 | 1011.5 |
| 20260506190047 | 76 | 271 | 12.0 | 25.0 | 0.00 | 0.00 | 0.00 | 33 | 1011.4 |
| 20260506184606 | 76 | 258 | 10.0 | 26.0 | 0.00 | 0.00 | 0.00 | 35 | 1011.4 |
| 20260506183054 | 75 | 259 | 12.0 | 23.0 | 0.00 | 0.00 | 0.00 | 35 | 1011.6 |
| 20260506181608 | 75 | 286 | 13.0 | 27.0 | 0.00 | 0.00 | 0.00 | 36 | 1011.7 |
| 20260506180049 | 75 | 309 | 12.0 | 23.0 | 0.00 | 0.00 | 0.00 | 37 | 1011.8 |
| 20260506174542 | 73 | 301 | 9.0 | 20.0 | 0.00 | 0.00 | 0.00 | 40 | 1011.8 |
| 20260506173059 | 72 | 315 | 6.0 | 16.0 | 0.00 | 0.00 | 0.00 | 43 | 1011.8 |
| 20260506171542 | 71 | 289 | 9.0 | 18.0 | 0.00 | 0.00 | 0.00 | 45 | 1012.0 |
| 20260506170055 | 70 | 281 | 6.0 | 17.0 | 0.00 | 0.00 | 0.00 | 46 | 1012.1 |
| 20260506164544 | 69 | 309 | 10.0 | 19.0 | 0.00 | 0.00 | 0.00 | 45 | 1012.2 |
| 20260506163055 | 68 | 275 | 10.0 | 19.0 | 0.00 | 0.00 | 0.00 | 46 | 1012.3 |
| 20260506161548 | 67 | 302 | 8.0 | 21.0 | 0.00 | 0.00 | 0.00 | 48 | 1012.3 |
| 20260506154550 | 65 | 283 | 8.0 | 16.0 | 0.00 | 0.00 | 0.00 | 51 | 1012.6 |
| 20260506153113 | 64 | 349 | 7.0 | 15.0 | 0.00 | 0.00 | 0.00 | 53 | 1012.6 |
| 20260506151544 | 63 | 321 | 7.0 | 18.0 | 0.00 | 0.00 | 0.00 | 56 | 1012.8 |
| 20260506150100 | 63 | 272 | 7.0 | 13.0 | 0.00 | 0.00 | 0.00 | 56 | 1012.7 |
| 20260506144554 | 62 | 267 | 4.0 | 11.0 | 0.00 | 0.00 | 0.00 | 58 | 1012.8 |
| 20260506143043 | 61 | 269 | 5.0 | 15.0 | 0.00 | 0.00 | 0.00 | 60 | 1012.8 |
| 20260506141552 | 60 | 298 | 5.0 | 14.0 | 0.00 | 0.00 | 0.00 | 61 | 1012.8 |
| 20260506140044 | 59 | 271 | 6.0 | 14.0 | 0.00 | 0.00 | 0.00 | 63 | 1012.8 |
| 20260506134538 | 58 | 215 | 6.0 | 11.0 | 0.00 | 0.00 | 0.00 | 66 | 1012.9 |
| 20260506133050 | 57 | 229 | 1.0 | 4.0 | 0.00 | 0.00 | 0.00 | 69 | 1012.8 |
| 20260506131546 | 57 | 266 | 4.0 | 9.0 | 0.00 | 0.00 | 0.00 | 68 | 1012.6 |
| 20260506130049 | 57 | 280 | 4.0 | 8.0 | 0.00 | 0.00 | 0.00 | 67 | 1012.7 |
| 20260506124540 | 57 | 250 | 1.0 | 10.0 | 0.00 | 0.00 | 0.00 | 67 | 1012.6 |
| 20260506123052 | 58 | 271 | 2.0 | 9.0 | 0.00 | 0.00 | 0.00 | 65 | 1012.6 |
| 20260506121542 | 58 | 275 | 2.0 | 12.0 | 0.00 | 0.00 | 0.00 | 65 | 1012.5 |
| 20260506120052 | 58 | 270 | 3.0 | 7.0 | 0.00 | 0.00 | 0.00 | 65 | 1012.4 |
| 20260506114538 | 58 | 255 | 2.0 | 7.0 | 0.00 | 0.00 | 0.00 | 63 | 1012.3 |
| 20260506113055 | 59 | 304 | 5.0 | 11.0 | 0.00 | 0.00 | 0.00 | 63 | 1012.3 |
| 20260506111647 | 59 | 279 | 3.0 | 12.0 | 0.00 | 0.00 | 0.00 | 63 | 1012.2 |
| 20260506110054 | 58 | 269 | 3.0 | 8.0 | 0.00 | 0.00 | 0.00 | 63 | 1012.1 |
| 20260506104543 | 59 | 305 | 2.0 | 7.0 | 0.00 | 0.00 | 0.00 | 62 | 1012.1 |
| 20260506103055 | 59 | 252 | 2.0 | 7.0 | 0.00 | 0.00 | 0.00 | 60 | 1011.9 |
| 20260506101541 | 60 | 268 | 2.0 | 9.0 | 0.00 | 0.00 | 0.00 | 59 | 1011.8 |
| 20260506100055 | 60 | 284 | 5.0 | 10.0 | 0.00 | 0.00 | 0.00 | 58 | 1011.6 |
| 20260506094541 | 60 | 279 | 4.0 | 9.0 | 0.00 | 0.00 | 0.00 | 58 | 1011.6 |
| 20260506093051 | 60 | 269 | 6.0 | 11.0 | 0.00 | 0.00 | 0.00 | 58 | 1011.6 |
| 20260506091552 | 60 | 274 | 2.0 | 7.0 | 0.00 | 0.00 | 0.00 | 58 | 1011.7 |